This demonstration page uses our WeatherBlox Daily Observations layout. Learn more.

Left ArrowRight Arrow

40.97296, -117.73568

Hourly Observations for August 24, 2020

Temp ( °F °C ) Dew Point ( °F °C ) Humidity (%) Winds ( mph kmh ) Pressure ( in mb ) Visibility ( mi km ) Precip ( " mm )
12:56 am 00:56 Hazy 72 22.2 32 0 23 23 WSW 5 7 29.84 1010 5 8 0.00 0.00
1:56 am 01:56 Hazy 77 25 34 1.1 21 21 VRB 3 6 29.80 1009 5 8 0.00 0.00
2:56 am 02:56 Hazy 75 23.9 34 1.1 22 22 ESE 5 7 29.82 1010 4 6 0.00 0.00
3:56 am 03:56 Hazy 70 21.1 35 1.7 28 28 SSE 3 6 29.83 1010 4 6 0.00 0.00
4:56 am 04:56 Hazy 71 21.7 36 2.2 28 28 Calm 29.83 1010 4 6 0.00 0.00
5:56 am 05:56 Hazy 67 19.4 36 2.2 32 32 Calm 29.85 1011 4 6 0.00 0.00
6:31 am 06:31 Hazy 70 21.1 37 2.8 30 30 WSW 3 6 29.81 1009 3 4 0.00 0.00
6:45 am 06:45 Hazy 70 21.1 39 3.9 32 32 WSW 3 6 29.82 1010 2 2 0.00 0.00
6:54 am 06:54 Hazy 70 21 39 4 33 33 Calm 29.83 1010 1 2 0.00 0.00
6:56 am 06:56 Hazy 69 20.6 39 3.9 33 33 Calm 29.89 1012 1 2 0.00 0.00
7:07 am 07:07 Mostly Cloudy with Haze 74 23.3 41 5 31 31 W 8 13 29.80 1009 1 2 0.00 0.00
7:24 am 07:24 Hazy 75 23.9 42 5.6 31 31 W 8 13 29.81 1009 1 2 0.00 0.00
7:33 am 07:33 Hazy 76 24.4 42 5.6 30 30 W 12 19 29.80 1009 2 2 0.00 0.00
7:54 am 07:54 Hazy 77 25 39 4 26 26 S 9 15 29.81 1009 2 3 0.00 0.00
7:56 am 07:56 Hazy 77 25 41 5 28 28 SW 7 11 29.94 1014 2 3 0.00 0.00
8:09 am 08:09 Hazy 81 27.2 43 6.1 26 26 W 7 11 29.78 1008 4 6 0.00 0.00
8:56 am 08:56 Mostly Sunny 77 25 49 9.4 37 37 NW 10 17 29.94 1014 8 13 0.00 0.00
9:56 am 09:56 Partly Cloudy 77 25 50 10 39 39 NE 8 13 29.91 1013 9 14 0.00 0.00
10:56 am 10:56 Sunny 82 27.8 47 8.3 29 29 VRB 5 7 29.91 1013 8 13 0.00 0.00
11:56 am 11:56 Sunny 87 30.6 44 6.7 22 22 Calm 29.88 1012 7 11 0.00 0.00
12:56 pm 12:56 Sunny 91 32.8 43 6.1 19 19 VRB 3 6 29.85 1011 7 11 0.00 0.00
1:56 pm 13:56 Hazy 93 33.9 42 5.6 17 17 VRB 3 6 29.81 1010 6 10 0.00 0.00
2:56 pm 14:56 Sunny 94 34.4 42 5.6 17 17 VRB 6 9 29.78 1009 7 11 0.00 0.00
3:56 pm 15:56 Partly Cloudy 98 36.7 41 5 14 14 W 10 17 29.76 1008 7 11 0.00 0.00
4:56 pm 16:56 Mostly Cloudy 95 35 41 5 15 15 NW 7 11 29.75 1008 8 13 0.00 0.00
5:56 pm 17:56 Mostly Sunny 94 34.4 41 5 16 16 WNW 9 15 29.74 1007 8 13 0.00 0.00
6:56 pm 18:56 Mostly Cloudy 93 33.9 41 5 16 16 Calm 29.74 1007 8 13 0.00 0.00
7:56 pm 19:56 Mostly Clear 87 30.6 43 6.1 21 21 Calm 29.75 1008 10 16 0.00 0.00
8:21 pm 20:21 Mostly Cloudy with Nearby Thunderstorms 70 21.1 57 13.9 64 64 S 8 13 29.77 1008 5 8 0.00 0.00
8:41 pm 20:41 Partly Cloudy 71 21.7 57 13.9 61 61 ESE 9 15 29.74 1007 7 11 0.00 0.00
8:56 pm 20:56 Mostly Clear 71 21.7 57 13.9 61 61 N 7 11 29.84 1010 8 13 0.00 0.00
9:56 pm 21:56 Clear 68 20 57 13.9 68 68 E 8 13 29.85 1011 10 16 0.00 0.00
10:28 pm 22:28 Mostly Cloudy with Nearby Thunderstorms 69 20.6 56 13.3 63 63 E 7 11 29.78 1009 10 16 0.00 0.00
10:43 pm 22:43 Mostly Cloudy 71 21.7 54 12.2 55 55 SSE 17 28 29.78 1008 10 16 0.00 0.00
10:56 pm 22:56 Cloudy with Nearby Thunderstorms 70 21.1 54 12.2 57 57 SSW 18 30 29.88 1012 10 16 0.01 0.25
11:17 pm 23:17 Cloudy with Light Rain 68 20 55 12.8 63 63 SE 14 22 29.78 1009 8 13 0.00 0.00
11:27 pm 23:27 Mostly Cloudy with Light Rain 70 21.1 54 12.2 57 57 ESE 9 15 29.73 1007 10 16 0.00 0.00
11:56 pm 23:56 Clear 68 20 55 12.8 63 63 Calm 29.85 1011 10 16 0.01 0.25

Powered by AerisWeather